FW0903 Weather Reports


time (UTC)temp
C
wind
direction
speed
KPH
gust
KPH
rain 1hr
cm
rain 24hr
cm
rain mn
cm
humidity
%
barometer
mb
20260503234018 10 0.0 1.6 0.00 11.38 11.38 73 1011.6
20260503233020 10 0.0 1.6 0.10 11.38 11.38 72 1011.6
20260503232020 10 203 1.6 14.5 0.13 11.38 11.38 73 1011.8
20260503231020 10 0.0 1.6 0.46 11.38 11.38 73 1012.0
20260503230018 10 225 1.6 16.1 0.76 11.38 11.38 72 1012.2
20260503225040 10 225 12.9 24.1 1.40 11.38 11.38 71 1012.5
20260503224020 10 0 17.7 35.4 1.60 11.38 11.38 69 1012.7
20260503223022 11 0 12.9 33.8 1.91 11.28 11.28 68 1012.9
20260503222018 11 225 22.5 33.8 2.01 11.25 11.25 66 1012.8
20260503221020 11 0 19.3 35.4 2.01 10.92 10.92 64 1012.9
20260503220020 13 0 22.5 38.6 1.91 10.62 10.62 60 1012.7
20260503215139 14 0 14.5 32.2 1.42 9.98 9.98 47 1012.5
20260503214020 14 225 14.5 29.0 1.42 9.78 9.78 47 1012.3
20260503213019 15 0 8.0 22.5 1.22 9.37 9.37 46 1012.3
20260503212040 14 225 14.5 35.4 2.24 9.25 9.25 45 1012.5
20260503211020 15 225 17.7 32.2 1.98 8.92 8.92 44 1012.6
20260503210020 15 0 14.5 32.2 2.97 8.71 8.71 45 1012.7
20260503205020 15 225 12.9 33.8 2.92 8.56 8.56 45 1012.8
20260503204019 15 0 19.3 30.6 3.43 8.36 8.36 44 1012.9
20260503203020 15 225 4.8 27.4 3.68 8.15 8.15 45 1013.0
20260503202020 15 0 8.0 30.6 3.00 7.01 7.01 45 1013.1
20260503201020 15 225 16.1 32.2 3.43 6.93 6.93 44 1013.3
20260503200020 15 0 14.5 30.6 3.38 5.74 5.74 44 1013.5
20260503195020 15 225 1.6 4.8 4.50 5.64 5.64 44 1013.6
20260503194020 15 0 11.3 27.4 4.93 4.93 4.93 44 1013.7
20260503193020 15 0 3.2 22.5 4.47 4.47 4.47 44 1013.7
20260503192020 15 225 17.7 35.4 4.01 4.01 4.01 44 1013.9
20260503191020 15 0 8.0 22.5 3.51 3.51 3.51 43 1013.9
20260503190019 15 225 16.1 30.6 2.36 2.36 2.36 45 1014.1
20260503185020 15 0 17.7 32.2 1.14 1.14 1.14 43 1014.3
20260503184020 15 225 19.3 35.4 0.00 0.00 0.00 42 1014.5
20260503183020 15 225 6.4 27.4 0.00 0.00 0.00 44 1014.6
20260503182018 15 0 11.3 32.2 0.00 0.00 0.00 45 1014.7
20260503181020 14 0 16.1 27.4 0.00 0.00 0.00 44 1014.8
20260503180020 14 225 17.7 35.4 0.00 0.00 0.00 44 1015.0
20260503175018 14 0 8.0 27.4 0.00 0.00 0.00 46 1015.1
20260503174040 14 225 14.5 29.0 0.00 0.00 0.00 43 1015.3
20260503173019 14 225 8.0 30.6 0.00 0.00 0.00 46 1015.3
20260503172019 14 225 4.8 17.7 0.00 0.00 0.00 48 1015.4
20260503171018 14 225 14.5 33.8 0.00 0.00 0.00 45 1015.6
20260503131019 7 225 1.6 9.7 0.00 0.00 0.00 63 1016.9
20260503110519 2 0.0 1.6 0.00 0.00 0.00 74 1016.5
20260503081519 2 0.0 0.0 0.00 0.00 0.00 75 1016.4
20260503080519 2 0.0 0.0 0.00 0.00 0.00 75 1016.4
20260503072520 3 0.0 0.0 0.00 0.00 0.00 74 1016.4
20260503071519 3 0.0 0.0 0.00 0.00 0.00 74 1016.5
20260503071019 3 0.0 1.6 0.00 0.00 0.00 74 1016.5
20260503055019 3 0.0 1.6 0.00 0.00 0.00 72 1016.8
20260503054019 3 0.0 1.6 0.00 0.00 0.00 72 1016.7
20260503053020 3 0.0 0.0 0.00 0.00 0.00 71 1016.8
20260503052020 3 0.0 1.6 0.00 0.00 0.00 70 1016.8
20260503051019 4 0.0 1.6 0.00 0.00 0.00 70 1016.8
20260503050020 3 0.0 1.6 0.00 0.00 0.00 70 1016.9
20260503045020 4 0.0 0.0 0.00 0.00 0.00 70 1017.0
20260503044019 4 0.0 1.6 0.00 0.00 0.00 70 1016.9
20260503043019 4 0.0 0.0 0.00 0.00 0.00 69 1016.8
20260503042020 4 0.0 0.0 0.00 0.00 0.00 68 1016.8
20260503041020 5 0.0 1.6 0.00 0.00 0.00 68 1016.8
20260503040020 5 0.0 0.0 0.00 0.00 0.00 67 1016.9
20260503035019 5 0.0 0.0 0.00 0.00 0.00 66 1016.9
20260503034041 5 0.0 0.0 0.00 0.00 0.00 66 1016.9
20260503033020 5 0.0 0.0 0.00 0.00 0.00 65 1016.8
20260503032020 5 0.0 1.6 0.00 0.00 0.00 65 1016.9
20260503031018 5 0.0 0.0 0.00 0.00 0.00 66 1016.9
20260503030020 5 0.0 0.0 0.00 0.00 0.00 66 1017.1
20260503025020 5 0.0 0.0 0.00 0.00 0.00 64 1017.1
20260503024020 5 0.0 0.0 0.00 0.00 0.00 64 1017.1
20260503023039 5 0.0 0.0 0.00 0.00 0.00 66 1017.1
20260503022020 5 0.0 1.6 0.00 0.00 0.00 67 1017.1
20260503021020 5 0.0 0.0 0.00 0.00 0.00 67 1017.1
20260503020040 6 0.0 0.0 0.00 0.00 0.00 67 1017.0
20260503015040 6 0.0 0.0 0.00 0.00 0.00 69 1017.0
20260503014020 6 0.0 0.0 0.00 0.00 0.00 68 1017.0
20260503013019 6 0.0 0.0 0.00 0.00 0.00 65 1016.9
20260503012040 6 0.0 0.0 0.00 0.00 0.00 61 1016.9
20260503011040 6 0.0 0.0 0.00 0.00 0.00 59 1016.8
20260503010020 6 0.0 0.0 0.00 0.00 0.00 59 1016.8
20260503005020 6 0.0 0.0 0.00 0.00 0.00 60 1016.8
20260503004020 6 0.0 0.0 0.00 0.00 0.00 59 1016.8
20260503003020 7 0.0 0.0 0.00 0.00 0.00 57 1016.7
20260503002020 7 0.0 0.0 0.00 0.00 0.00 56 1016.7
20260503001020 7 0.0 0.0 0.00 0.00 0.00 54 1016.5
20260503000020 7 0.0 1.6 0.00 0.00 0.00 53 1016.5
20260502235020 8 0.0 0.0 0.00 0.00 0.00 53 1016.6